Location: Balmoral
(33.0667°S, 151.5833°E)
Time: 00:25:41
(UTC+00:00)

CZ-4B R/B - Pass Details

Date: 18 September 2020
Orbit: 487 x 652 km, 97.9° (Epoch: 20 October)

Event Time Altitude Azimuth Distance (km) Brightness Sun altitude
Rises 18:02:41 0° 21° (NNE) 2,573 6.3 -22.6°
Reaches altitude 10° 18:04:43 10° 24° (NNE) 1,713 5.4 -22.2°
Maximum altitude 18:08:20 60° 104° (ESE) 601 3.2 -21.4°
Drops below altitude 10° 18:12:11 10° 184° (S) 1,812 5.5 -20.7°
Sets 18:14:23 0° 187° (S) 2,740 6.4 -20.2°
